Погода в Новоржеве

Россия / Псковская область     57°01′46″N   29°19′56″E
темп.,
°C
ветер,
м/с
пор.,
м/с
влажн.,
%
обл.,
%
осадки,
мм/ч
давл.,
гПа
погр.,
м
12 мая, ср
ср1200:00+11юв398017 0.0 1022154
03:00+10юв27875 0.0 1022131
06:00+11юв29910 0.0 1022196
09:00+18юв35670 0.0 1022545
12:00+21юв57530 0.0 10211434
15:00+21юв57460 0.0 10201689
18:00+20юв36520 0.0 10191287
21:00+14с11746 0.0 101710
13 мая, чт
чт1300:00+13св2880100 0.0 1015177
03:00+13в51395100 0.6 1013827
06:00+10вюв411923 0.1 1014808
09:00+13вюв596922 0.1 10141025
12:00+14вюв5126816 0.2 10131563
15:00+17юв6114545 0.4 10122274
18:00+16юв585984 0.1 10111659
21:00+11юв2579100 0.3 1011147
14 мая, пт
пт1400:00+9юв27906 0.0 1011163
03:00+7юв269626 0.0 1011112
06:00+8вюв3108811 0.0 1011278
09:00+12юв4107696 0.0 1011545
12:00+14ююв41070100 0.0 1011822
15:00+18ююв486578 0.3 10101537
18:00+18вюв47675 0.9 10091033
21:00+13в398454 1.0 1008195
15 мая, сб
сб1500:00+12в31192100 0.3 1007347
03:00+12юв2798100 1.1 1006369
06:00+11ююв129821 0.0 100654
09:00+15ююз248525 0.0 1006519
12:00+19юз345642 0.0 10051519
15:00+18юз237323 2.0 1005954
18:00+17зюз248598 2.4 1005269
21:00+13зюз3895100 4.1 1005212
16 мая, вс
вс1600:00+11юз3898100 0.1 1006218
03:00+10юз399952 0.1 1007243
06:00+11зюз389999 0.0 1008401
09:00+11зюз41096100 0.1 1010528
12:00+13зюз4784100 0.1 1012758
15:00+19з46479 0.1 10121926
18:00+16з376430 0.0 1013323
21:00+13ююз227896 0.0 101411